Location: Pandora
(40.9481°N, 83.9611°W)
Time: 04:54:57
(UTC-04:00)

Tiangong - Pass Details

Date: 24 September 2021
Orbit: 382 x 385 km, 41.5° (Epoch: 17 October)

Event Time Altitude Azimuth Distance (km) Brightness Sun altitude
Exits shadow 06:25:02 - 198° (SSW) 1,853 4.2 -12.2°
Reaches altitude 10° 06:26:44 10° 178° (S) 1,389 3.8 -11.9°
Maximum altitude 06:28:20 13° 147° (SSE) 1,207 3.9 -11.6°
Drops below altitude 10° 06:29:58 10° 116° (ESE) 1,392 4.8 -11.3°
Sets 06:32:48 0° 88° (E) 2,247 7.1 -10.8°
